Regional Weather Roundup
Issued by NWS Upton, NY

Current Version | Previous Version | Text Only | Print | Product List | Glossary On
Versions: 1 2 3 4 5 6 7 8 9 10 11 12 13 14 15 16 17 18 19 20 21 22 23 24 25 26 27 28 29 30 31 32
000
ASUS41 KOKX 231305
RWROKX

Regional Weather Roundup
National Weather Service New York NY
800 AM EST FRI FEB 23 2018

Note: "FAIR" indicates few or no clouds below 12,000 feet with no
significant weather and/or obstructions to visibility.

NYZ071-072-176-178-NJZ106-104-231400-
New York City Metro Area

CITY           SKY/WX    TMP DP  RH WIND       PRES   REMARKS
Central Park   CLOUDY    37  31  78 NE9       30.66R WCI  30
Bronx Bot Gard   N/A     36  32  87 E9        30.66R WCI  29
Bronx Lehman C   N/A     36  32  87 E10         N/A  WCI  28
LaGuardia Arpt CLOUDY    38  32  79 E12       30.65R WCI  30
Queens College   N/A     36  32  87 E8          N/A  WCI  29
Kennedy Intl   CLOUDY    37  32  82 NE12      30.65S WCI  29
Breezy Point     N/A     36 N/A N/A NE9         N/A  WCI  29
Brooklyn Coll    N/A     37  32  81 NE7         N/A  WCI  32
Staten Island    N/A     37  32  81 E8          N/A  WCI  31
Newark/Liberty CLOUDY    38  32  79 E7        30.64S WCI  33
Teterboro      CLOUDY    37  31  78 E8        30.64R WCI  31
$$

NYZ177-179-078>081-231400-
Long Island New York

CITY           SKY/WX    TMP DP  RH WIND       PRES   REMARKS
Jones Beach      N/A     36 N/A N/A NE16        N/A  WCI  26
Wantagh          N/A     36  32  87 NE7         N/A  WCI  30
Hempstead        N/A     36  32  87 E3        30.67S
Matinecock Pt    N/A     36 N/A N/A E18         N/A  WCI  25
Farmingdale    CLOUDY    36  31  82 E10       30.63F WCI  28
MacArthur/ISP  CLOUDY    36  33  89 NE10      30.64S WCI  28
Shirley        CLOUDY    37  33  85 CALM      30.66R
Mt Sinai Harb    N/A    N/A N/A N/A E10         N/A
Westhampton    CLOUDY    36  32  85 NE9       30.66F WCI  29
East Hampton   CLOUDY    35  31  84 E7        30.66S WCI  29
Southold         N/A     36  32  87 E8          N/A  WCI  29
Montauk        NOT AVBL
$$

NYZ052-065-067-231400-
Hudson Valley

CITY           SKY/WX    TMP DP  RH WIND       PRES   REMARKS
White Plains   LGT RAIN  34  31  88 VRB6      30.62S WCI  29
Larchmont Harb   N/A     34 N/A N/A NE16        N/A  WCI  23
Croton On Huds   N/A     36 N/A N/A NE1         N/A
Somers           N/A     32  32 100 E5          N/A  WCI  27
Brewster         N/A     32  30  93 E2          N/A
Newburgh       CLOUDY    30  30 100 E7        30.62F WCI  23
Montgomery     CLOUDY    31  28  89 NE6       30.61F WCI  25
Otisville        N/A     30  28  93 NE3         N/A
Warwick          N/A     32  32 100 E3          N/A
Suffern          N/A     32  32 100 NE1         N/A
Poughkeepsie   PTSUNNY   30  28  92 N3        30.64F
Albany         FOG       24  21  88 CALM      30.65F VSB 1
$$

NJZ001-105-106-008-010-013-015-019>022-104-231400-
New Jersey

CITY           SKY/WX    TMP DP  RH WIND       PRES   REMARKS
Newark/Liberty CLOUDY    38  32  79 E7        30.64S WCI  33
Teterboro      CLOUDY    37  31  78 E8        30.64R WCI  31
Caldwell       CLOUDY    35  33  92 E7        30.64R WCI  29
Somerville     CLOUDY    37  34  89 CALM      30.62R
Linden         CLOUDY    37  32  80 E6        30.65R WCI  33
Perth Amboy      N/A     36 N/A N/A E9          N/A  WCI  29
Sussex         CLOUDY    32  31  96 NE5       30.61R WCI  27
Andover          N/A     33  32  96 VRB3      30.60R
Trenton        LGT RAIN  37  34  89 NE7       30.62R FOG     WCI  32
Millville      LGT RAIN  39  38  96 NE7       30.58S WCI  34
Atlantic City  CLOUDY    41  40  96 E13       30.58F
Wrightstown    LGT RAIN  37  36  94 E7        30.59  WCI  32
Toms River     LGT RAIN  38  37  97 NE8       30.62R WCI  32
Belmar         CLOUDY    37  35  92 NE12      30.63R WCI  29
$$

PAZ047>061-062-071-231400-
Eastern Pennsylvania

CITY           SKY/WX    TMP DP  RH WIND       PRES   REMARKS
Philadelphia   LGT RAIN  38  35  89 NE5       30.62R WCI  34
Allentown      MIX PCPN  37  33  85 E5        30.62R WCI  33
Scranton       LGT RAIN  35  32  88 CALM      30.57R FOG
$$

CTZ002-004>006-009-010-012-RIZ004-006-007-MAZ004-011-015-231400-
Southern New England

 In CT

CITY           SKY/WX    TMP DP  RH WIND       PRES   REMARKS
Bradley Intl   PTSUNNY   30  28  92 N7        30.68S WCI  23
Hartford       PTSUNNY   32  29  88 N6        30.69S WCI  26
Danbury        PTSUNNY   34  30  85 E9        30.64F WCI  27
Wtrbury/Oxford PTSUNNY   30  28  93 NE8       30.65R WCI  23
Norwalk Harbor   N/A     34 N/A N/A NE16        N/A  WCI  23
Bridgeport     CLOUDY    35  31  85 NE10      30.67S WCI  27
Meriden        FAIR      33  30  88 CALM      30.68S
New Haven      PTSUNNY   35  31  85 NE6       30.67S WCI  30
Chester        PTSUNNY   34  30  86 NE8       30.66S WCI  27
Groton         FAIR      36  31  82 NE8       30.67S WCI  30
Willimantic    PTSUNNY   34  29  82 NE5       30.68F WCI  30

 In RI

CITY           SKY/WX    TMP DP  RH WIND       PRES   REMARKS
Providence     PTSUNNY   35  32  88 N7        30.70R WCI  29
Block Island   PTSUNNY   35  33  92 NE9       30.67S WCI  28
Westerly       FAIR      36  34  92 NE6       30.67F WCI  31

In MA

CITY           SKY/WX    TMP DP  RH WIND       PRES   REMARKS
Boston         PTSUNNY   33  29  85 N5        30.71R WCI  29
Worcester      CLOUDY    26  25  96 E3        30.64F
Westfield      FAIR      28  27  96 N5        30.68S WCI  23
Provincetown   FAIR      40  25  55 E12       30.69F WCI  33
Nantucket      FAIR      39  28  64 NE13      30.67F WCI  31
$$

ANZ330-335-338-340-345-350-353-355-231400-
Coastal Marine Observations


STATION/POSITION TIME  SKY/WX   TEMP    WIND        PRES    VSBY  WAVE
                                AIR SEA DIR/SP/G                  HT/PER
                 (UTC)          (F)     (DEG/KT/KT) (MB)    (MI)  (FT/S)
NY Harb Entrance 1240            38 40   60/ 16/ 19 1037.4
20 S Fire Island 1150            40 42   70/ 16/ 19 1036.5          5/ 7
23 SSW Montauk P 1150            38 42   60/ 16/ 17 1037.7          4/ 7
15 E Barnegat Li 1230               42                N/A           7/ 8
Hudson Canyon    1150            44 46   70/ 19/ 25 1034.9          7/ 7
Kings Point      1230            36 38  100/  5/  8 1038.4
Execution Rocks  NOT AVBL
Western LI Sound NOT AVBL
Central LI Sound 1230            35      60/ 10/ 12   N/A           1
Robbins Reef     1230            37      70/ 11/ 14 1037.7
$$


>>>>>>>>>>>>>>>>>>>>>>>>>>>> KEY <<<<<<<<<<<<<<<<<<<<<<<<<<<
>                                                          <
>     SKY/WX - Sky Condition/Present Weather               <
>     TMP    - Temperature in Fahrenheit                   <
>     DP     - Dew Point in Fahrenheit                     <
>     RH     - Relative Humidity in Percent                <
>     WIND   - Direction (from) and Speed in MPH           <
>     PRES   - Mean Sea Level Pressure (inches of Hg)      <
>     WCI    - Wind Chill Index                            <
>     VSB    - Visibility in Miles                         <
>     HX     - Heat Index                                  <
>     TC     - Temperature in Celsius                      <
>     VRB    - Varibale Wind Direction                     <
>                                                          <
>>>>>>>>>>>>>>>>>>>>>>>>>>>> KEY <<<<<<<<<<<<<<<<<<<<<<<<<<<




USA.gov is the U.S. government's official web portal to all federal, state and local government web resources and services.